STARLINK-1202, 45183

Orbit data source: Space-Track

STARLINK-1202, 45183 is a payload satellite owned by SpaceX/Seattle (US) in LEO that was launched on Mon, 17 Feb 2020 UTC via an FALCON 9 launch vehicle from the Air Force Eastern Test Range (AFETR). Payload-class satellites include a variety of spacecraft equipped with specific instruments for various scientific and technological missions. These include communications satellites like Starlink; space stations such as the ISS; scientific satellites like the Hubble; Earth observation satellites from companies like Planet Labs, Umbra, and HawkEye 360; GPS; miniature CubeSats for education and research; and military/defense satellites.

Loading next visibility...
Identifier
45183, 2020-012F
Orbit
LEO
Country
Flag of USUS
Related business
Manufacturer
SpaceX/Seattle
Mission
Partially operational Commercial Communications
Bus & Motor
STARLINK, Unknown motor
Mass
260 kg wet, ~248 kg dry
Launch date (UTC)
2020-02-17 (6 years ago)
Launch vehicle
FALCON 9
Launch site
Air Force Eastern Test Range (AFETR)
Object type
Payload
Rocket body
Debris
Shape & HBR
Box + 1 Pan, 10.1 m
Radar Cross Section
13.562 m², Large (>1 m²)

Expand to show TLE details & history
Last TLE update: 16 hours ago

TLE from 16 hours ago
0 STARLINK-1202
1 45183U 20012F   26169.61293273  .00034949  00000-0  99906-3 0  9998
2 45183  53.1552 289.1749 0002114 294.4113  65.6669 15.35683268350425
Epoch: 2026-06-18T14:42Z
TLE epoch observation values (Epoch: 2026-06-18T14:42:37.387Z)
Latitude
-0.00007°
Longitude
161.66532°
Altitude
459.198 km
Speed
7.639 km/s
True Right ascension
19h 16m 41s
True Declination
0° 00' 00"
Sunlit
Object was in full shadow at epoch
Visualization orbit readout
Latitude
Unknown
Longitude
Unknown
Altitude
Unknown
Speed
Unknown
Apparent Right ascension
Unknown
Apparent Declination
Unknown
Sunlit
N/A
Visualization observer readout
Local Sidereal Time
17:57:47
Azimuth
Unknown
Elevation
Unknown
Doppler factor
Unknown
Orbital elements
Apogee altitude
460.595 km
Perigee altitude
457.704 km
Semi-major axis
6,837.287 km
Eccentricity
0.00021
Inclination
53.1552°
RAAN
289.1749°
Arg. of periapsis
294.4113°
True anomaly
65.68898°
Mean anomaly
65.6669°
Eccentric anomaly
65.67794°
Mean motion
3.83899 °/min
Orbital period
93.77 mins
BSTAR
0.00099906
Loading maneuver chart data...
Computing Atmospheric mass density...

Documentation

Showing up to 5 results
|